Regional Weather Roundup
Issued by NWS Albany, NY

Current Version | Previous Version | Graphics & Text | Print | Product List | Glossary Off
Versions: 1 2 3 4 5 6 7 8 9 10 11 12 13 14 15 16 17 18 19 20 21 22 23 24 25 26 27 28 29 30 31 32 33 34 35 36 37 38 39 40 41 42 43 44 45 46 47 48 49 50

686
ASUS41 KALY 180710
RWRALY

NEW YORK STATE HOURLY WEATHER ROUNDUP
NATIONAL WEATHER SERVICE ALBANY NY
300 AM EDT WED OCT 18 2017

NOTE: "FAIR" INDICATES FEW OR NO CLOUDS BELOW 12,000 FEET WITH NO
SIGNIFICANT WEATHER AND/OR NO OBSTRUCTIONS TO VISIBILITY.

NYZ032-033-038>043-046>054-057>066-NYZ062>081-082-084-180800-
EAST


CITY           SKY/WX    TMP DP  RH WIND       PRES   REMARKS
ALBANY         PTCLDY    45  36  70 S3        30.21R
GLENS FALLS    CLOUDY    38  33  82 CALM      30.19S
POUGHKEEPSIE   CLEAR     40  35  83 SE3       30.25S
NEWBURGH       CLEAR     45  37  76 SW8       30.26F
MONTGOMERY     CLEAR     37  36  96 CALM      30.25F
WHITE PLAINS   CLEAR     47  36  65 W3        30.26F
ISLIP          CLEAR     48  41  76 W9        30.27F
NEW YORK CITY  CLEAR     54  36  50 W9        30.28S
CENTRAL PARK   CLEAR     51  38  60 VRB6      30.31S
$$

NYZ005>009-017-018-044>046-055-056-180800-
CENTRAL


CITY           SKY/WX    TMP DP  RH WIND       PRES   REMARKS
FULTON         CLEAR     51  40  65 S5        30.17R
SYRACUSE       PTCLDY    52  40  63 SW7       30.18R
ROME           PTCLDY    44  39  82 CALM      30.20R
ELMIRA         CLEAR     44  40  85 SW7       30.23S
BINGHAMTON     CLEAR     47  36  65 SW7       30.22S
MONTICELLO     CLEAR     35  32  88 CALM      30.26S
$$

NYZ026>034-041>043-087-180800-
NORTH


CITY           SKY/WX    TMP DP  RH WIND       PRES   REMARKS
WATERTOWN      CLEAR     52  44  74 S7        30.15R
FORT DRUM      NOT AVBL
OGDENSBURG     FAIR      50  48  91 SW5       30.10S
MASSENA        CLEAR     51  47  86 SW9       30.09R
SARANAC LAKE   PTCLDY    49  42  77 SW9       30.11R
PLATTSBURGH    CLEAR     48  40  73 SE3       30.08S
$$

NYZ001>004-010>016-019>021-085-180800-
WEST


CITY           SKY/WX    TMP DP  RH WIND       PRES   REMARKS
NIAGARA FALLS    N/A     58  49  72 SW10      30.19R
BUFFALO        CLEAR     53  42  66 SW9       30.20R
DUNKIRK        CLEAR     54  42  64 S14       30.22S
JAMESTOWN      CLEAR     46  38  73 SW9       30.26S
WELLSVILLE     CLEAR     51  36  56 SW8       30.25F
ROCHESTER      CLEAR     50  42  74 SW9       30.19R
$$

             KEY
       WCI = WIND CHILL INDEX
       VSB = VISIBILITY
       HX  = HEAT INDEX
$$




USA.gov is the U.S. government's official web portal to all federal, state and local government web resources and services.